CAPE
0 0 0 0 0 0 0 0 0 0 0 0 0 0 0 0 0 0 0 0 0 0 0 0 0 0 0 0 0 0 0 0 0 0 0 0 0 0 0 0 0 0 0 0
0 0 0 0 0 0 0 0 0 0 0 0 0 0 0 0 0 0 0 0 0 0 0 0 0 0 0 0 0 0 0 0 0 0 0 0 0 0 0 0 0 0 0 0
0 0 0 0 0 0 0 0 0 0 0 0 0 0 0 0 0 0 0 0 0 0 0 0 0 0 0 0 0 0 0 0 0 0 0 0 0 0 0 0 0 0 0 0
0 0 0 0 0 0 0 0 0 0 0 0 0 0 0 0 0 0 0 0 0 0 0 0 0 0 0 0 0 0 0 0 0 0 0 0 0 0 0 0 0 0 0 0
0 0 0 0 0 0 0 0 0 0 0 0 0 0 0 0 0 0 0 0 0 0 0 0 0 0 0 0 0 0 0 0 0 0 0 0 0 0 0 0 0 0 0 0
0 0 0 0 0 0 0 0 0 0 0 0 0 0 0 0 0 0 0 0 0 0 0 0 0 0 0 0 0 0 0 0 0 0 0 0 0 0 0 0 0 0 0 0
0 0 0 0 0 0 0 0 0 0 0 0 0 0 0 0 0 0 0 0 0 0 0 0 0 0 0 0 0 0 0 0 0 0 0 0 0 0 0 0 0 0 0 0
0 0 0 0 0 0 0 0 0 0 0 0 0 0 0 0 0 0 0 0 0 0 0 0 0 0 0 0 0 0 0 0 0 0 0 0 0 0 0 0 0 0 0 0
0 0 0 0 0 0 0 0 0 0 0 0 0 0 0 0 0 0 0 0 0 0 0 0 0 0 0 0 0 0 0 0 0 0 0 0 0 0 0 0 0 0 0 0
0 0 0 0 0 0 0 0 0 0 0 0 0 0 0 0 0 0 0 0 0 0 0 0 0 0 0 0 0 0 0 0 0 0 0 0 0 0 0 0 0 0 0 0
0 0 0 0 0 0 0 0 0 0 0 0 0 0 0 0 0 0 0 0 0 0 0 0 0 0 0 0 0 0 0 0 0 0 0 0 0 0 0 0 0 0 0 0
0 0 0 0 0 0 0 0 0 0 0 0 0 0 0 0 0 0 0 0 0 0 0 0 0 0 0 0 0 0 0 0 0 0 0 0 0 0 0 0 0 0 0 0
0 0 0 0 0 0 0 0 0 0 0 0 0 0 0 0 0 0 0 0 0 0 0 0 0 0 0 0 0 0 0 0 0 0 0 0 0 0 0 0 0 0 0 0
0 0 0 0 0 0 0 0 0 0 0 0 0 0 0 0 0 0 0 0 0 0 0 0 0 0 0 0 0 0 0 0 0 0 0 0 0 0 0 0 0 0 0 0
0 0 0 0 0 0 0 0 0 0 0 0 0 0 0 0 0 0 0 0 0 0 0 0 0 0 0 0 0 0 0 0 0 0 0 0 0 0 0 0 0 0 0 0
0 0 0 0 0 0 0 0 0 0 0 0 0 0 0 0 0 0 0 0 0 0 0 0 0 0 0 0 0 0 0 0 0 0 0 0 0 0 0 0 0 0 0 0
0 0 0 0 0 0 0 0 0 0 0 0 0 0 0 0 0 0 0 0 0 0 0 0 0 0 0 0 0 0 0 0 0 0 0 0 0 0 0 0 0 0 0 0
0 0 0 0 0 0 0 0 0 0 0 0 0 0 0 0 0 0 0 0 0 0 0 0 0 0 0 0 0 0 0 0 0 0 0 0 0 0 0 0 0 0 0 0
0 0 0 0 0 0 0 0 0 0 0 0 0 0 0 0 0 0 0 0 0 0 0 0 0 0 0 0 0 0 0 0 0 0 0 0 0 0 0 0 0 0 0 0
0 0 0 0 0 0 0 0 0 0 0 0 0 0 0 0 0 0 0 0 0 0 0 0 0 0 0 0 0 0 0 0 0 0 0 0 0 0 0 0 0 0 0 0
0 0 0 0 0 0 0 0 0 0 0 0 0 0 0 0 0 0 0 0 0 0 0 0 0 0 0 0 0 0 0 0 0 0 0 0 0 0 0 0 0 0 0 0
0 0 0 0 0 0 0 0 0 0 0 0 0 0 0 0 0 0 0 0 0 0 0 0 0 0 0 0 0 0 0 0 0 0 0 0 0 0 0 0 0 0 0 0
0 0 0 0 0 0 0 0 0 0 0 0 0 0 0 0 0 0 0 0 0 0 0 0 0 0 0 0 0 0 0 0 0 0 0 0 0 0 0 0 0 0 0 0
0 0 0 0 0 0 0 0 0 0 0 0 0 0 0 0 0 0 0 0 0 0 0 0 0 0 0 0 0 0 0 0 0 0 0 0 0 0 0 0 0 0 0 0
0 0 0 0 0 0 0 0 0 0 0 0 0 0 0 0 0 0 0 0 0 0 0 0 0 0 0 0 0 0 0 0 0 0 0 0 0 0 0 0 0 0 0 0
0 0 0 0 0 0 0 0 0 0 0 0 0 0 0 0 0 0 0 0 0 0 0 0 0 0 0 0 0 0 0 0 0 0 0 0 0 0 0 0 0 0 0 1
CIN
-0 -0 -0 -0 -0 -0 -0 -0 -0 -0 -0 -0 -0 -0 -0 -0 -0 -0 -0 -0 -0 -0 -0 -0 -0 -0 -0 -0 -0 -0 -0 -0 -0 -0 -0 -0 -0 -0 -0 -0 -0 -0 -0 -0
-0 -0 -0 -0 -0 -0 -0 -0 -0 -0 -0 -0 -0 -0 -0 -0 -0 -0 -0 -0 -0 -0 -0 -0 -0 -0 -0 -0 -0 -0 -0 -0 -0 -0 -0 -0 -0 -0 -0 -0 -0 -0 -0 -0
-0 -0 -0 -0 -0 -0 -0 -0 -0 -0 -0 -0 -0 -0 -0 -0 -0 -0 -0 -0 -0 -0 -0 -0 -0 -0 -0 -0 -0 -0 -0 -0 -0 -0 -0 -0 -0 -0 -0 -0 -0 -0 -0 -0
-0 -0 -0 -0 -0 -0 -0 -0 -0 -0 -0 -0 -0 -0 -0 -0 -0 -0 -0 -0 -0 -0 -0 -0 -0 -0 -0 -0 -0 -0 -0 -0 -0 -0 -0 -0 -0 -0 -0 -0 -0 -0 -0 -0
-0 -0 -0 -0 -0 -0 -0 -0 -0 -0 -0 -0 -0 -0 -0 -0 -0 -0 -0 -0 -0 -0 -0 -0 -0 -0 -0 -0 -0 -0 -0 -0 -0 -0 -0 -0 -0 -0 -0 -0 -0 -0 -0 -0
-0 -0 -0 -0 -0 -0 -0 -0 -0 -0 -0 -0 -0 -0 -0 -0 -0 -0 -0 -0 -0 -0 -0 -0 -0 -0 -0 -0 -0 -0 -0 -0 -0 -0 -0 -0 -0 -0 -0 -0 -0 -0 -0 -0
-0 -0 -0 -0 -0 -0 -0 -0 -0 -0 -0 -0 -0 -0 -0 -0 -0 -0 -0 -0 -0 -0 -0 -0 -0 -0 -0 -0 -0 -0 -0 -0 -0 -0 -0 -0 -0 -0 -0 -0 -0 -0 -0 -0
-0 -0 -0 -0 -0 -0 -0 -0 -0 -0 -0 -0 -0 -0 -0 -0 -0 -0 -0 -0 -0 -0 -0 -0 -0 -0 -0 -0 -0 -0 -0 -0 -0 -0 -0 -0 -0 -0 -0 -0 -0 -0 -0 -0
-0 -0 -0 -0 -0 -0 -0 -0 -0 -0 -0 -0 -0 -0 -0 -0 -0 -0 -0 -0 -0 -0 -0 -0 -0 -0 -0 -0 -0 -0 -0 -0 -0 -0 -0 -0 -0 -0 -0 -0 -0 -0 -0 -0
-0 -0 -0 -0 -0 -0 -0 -0 -0 -0 -0 -0 -0 -0 -0 -0 -0 -0 -0 -0 -0 -0 -0 -0 -0 -0 -0 -0 -0 -0 -0 -0 -0 -0 -0 -0 -0 -0 -0 -0 -0 -0 -0 -0
-0 -0 -0 -0 -0 -0 -0 -0 -0 -0 -0 -0 -0 -0 -0 -0 -0 -0 -0 -0 -0 -0 -0 -0 -0 -0 -0 -0 -0 -0 -0 -0 -0 -0 -0 -0 -0 -0 -0 -0 -0 -0 -0 -0
-0 -0 -0 -0 -0 -0 -0 -0 -0 -0 -0 -0 -0 -0 -0 -0 -0 -0 -0 -0 -0 -0 -0 -0 -0 -0 -0 -0 -0 -0 -0 -0 -0 -0 -0 -0 -0 -0 -0 -0 -0 -0 -0 -0
-0 -0 -0 -0 -0 -0 -0 -0 -0 -0 -0 -0 -0 -0 -0 -0 -0 -0 -0 -0 -0 -0 -0 -0 -0 -0 -0 -0 -0 -0 -0 -0 -0 -0 -0 -0 -0 -0 -0 -0 -0 -0 -0 -0
-0 -0 -0 -0 -0 -0 -0 -0 -0 -0 -0 -0 -0 -0 -0 -0 -0 -0 -0 -0 -0 -0 -0 -0 -0 -0 -0 -0 -0 -0 -0 -0 -0 -0 -0 -0 -0 -0 -0 -0 -0 -0 -0 -0
-0 -0 -0 -0 -0 -0 -0 -0 -0 -0 -0 -0 -0 -0 -0 -0 -0 -0 -0 -0 -0 -0 -0 -0 -0 -0 -0 -0 -0 -0 -0 -0 -0 -0 -0 -0 -0 -0 -0 -0 -0 -0 -0 -0
-0 -0 -0 -0 -0 -0 -0 -0 -0 -0 -0 -0 -0 -0 -0 -0 -0 -0 -0 -0 -0 -0 -0 -0 -0 -0 -0 -0 -0 -0 -0 -0 -0 -0 -0 -0 -0 -0 -0 -0 -0 -0 -0 -0
-0 -0 -0 -0 -0 -0 -0 -0 -0 -0 -0 -0 -0 -0 -0 -0 -0 -0 -0 -0 -0 -0 -0 -0 -0 -0 -0 -0 -0 -0 -0 -0 -0 -0 -0 -0 -0 -0 -0 -0 -0 -0 -0 -0
-0 -0 -0 -0 -0 -0 -0 -0 -0 -0 -0 -0 -0 -0 -0 -0 -0 -0 -0 -0 -0 -0 -0 -0 -0 -0 -0 -0 -0 -0 -0 -0 -0 -0 -0 -0 -0 -0 -0 -0 -0 -0 -0 -0
-0 -0 -0 -0 -0 -0 -0 -0 -0 -0 -0 -0 -0 -0 -0 -0 -0 -0 -0 -0 -0 -0 -0 -0 -0 -0 -0 -0 -0 -0 -0 -0 -0 -0 -0 -0 -0 -0 -0 -0 -0 -0 -0 -0
-0 -0 -0 -0 -0 -0 -0 -0 -0 -0 -0 -0 -0 -0 -0 -0 -0 -0 -0 -0 -0 -0 -0 -0 -0 -0 -0 -0 -0 -0 -0 -0 -0 -0 -0 -0 -0 -0 -0 -0 -0 -0 -0 -0
-0 -0 -0 -0 -0 -0 -0 -0 -0 -0 -0 -0 -0 -0 -0 -0 -0 -0 -0 -0 -0 -0 -0 -0 -0 -0 -0 -0 -0 -0 -0 -0 -0 -0 -0 -0 -0 -0 -0 -0 -0 -0 -0 -0
-0 -0 -0 -0 -0 -0 -0 -0 -0 -0 -0 -0 -0 -0 -0 -0 -0 -0 -0 -0 -0 -0 -0 -0 -0 -0 -0 -0 -0 -0 -0 -0 -0 -0 -0 -0 -0 -0 -0 -0 -0 -0 -0 -0
-0 -0 -0 -0 -0 -0 -0 -0 -0 -0 -0 -0 -0 -0 -0 -0 -0 -0 -0 -0 -0 -0 -0 -0 -0 -0 -0 -0 -0 -0 -0 -0 -0 -0 -0 -0 -0 -0 -0 -0 -0 -0 -0 -0
-0 -0 -0 -0 -0 -0 -0 -0 -0 -0 -0 -0 -0 -0 -0 -0 -0 -0 -0 -0 -0 -0 -0 -0 -0 -0 -0 -0 -0 -0 -0 -0 -0 -0 -0 -0 -0 -0 -0 -0 -0 -0 -0 -0
-0 -0 -0 -0 -0 -0 -0 -0 -0 -0 -0 -0 -0 -0 -0 -0 -0 -0 -0 -0 -0 -0 -0 -0 -0 -0 -0 -0 -0 -0 -0 -0 -0 -0 -0 -0 -0 -0 -0 -0 -0 -0 -0 -0
-0 -0 -0 -0 -0 -0 -0 -0 -0 -0 -0 -0 -0 -0 -0 -0 -0 -0 -0 -0 -0 -0 -0 -0 -0 -0 -0 -0 -0 -0 -0 -0 -0 -0 -0 -0 -0 -0 -0 -0 -0 -0 -0 -3
Wind_Speed
2 7 2 5 4 4 3 4 6 1 2 3 6 7 10 8 6 7 8 6 7 8 4 8 7 8 8 6 5 4 4 2 3 3 3 3 2 2 2 3 6 5 4 5
6 3 2 5 5 3 5 6 1 2 3 2 3 10 10 5 5 7 8 8 9 7 6 6 7 6 4 5 4 5 5 5 3 2 0 1 1 2 1 2 3 5 6 4
7 2 4 2 6 5 4 7 3 4 3 0 3 8 2 3 5 4 5 6 7 10 9 6 6 6 5 5 4 5 5 5 4 4 2 3 3 3 4 4 3 5 6 5
6 3 3 3 5 4 2 5 2 5 5 3 3 5 6 3 3 3 4 7 8 8 6 6 6 5 5 3 4 5 5 5 4 4 5 4 2 1 1 1 2 4 6 6
2 5 7 7 3 2 2 2 3 2 4 5 2 5 9 2 3 6 7 6 7 8 9 8 8 7 5 5 4 4 5 4 3 5 5 3 2 0 1 2 5 6 5 6
4 1 4 1 1 3 3 4 6 5 4 4 3 7 8 3 3 3 4 6 9 8 8 8 7 7 6 4 4 4 5 3 4 4 4 5 3 2 2 2 3 3 3 3
5 3 2 3 1 3 4 6 4 6 5 7 3 4 9 2 3 2 8 9 8 9 8 8 8 7 6 6 5 4 5 3 3 3 3 3 3 3 2 1 1 3 3 2
6 5 3 5 2 2 1 5 7 6 3 5 1 6 7 3 0 2 3 8 8 8 7 7 7 7 7 8 7 5 6 4 3 2 1 2 3 1 1 0 0 1 1 3
4 1 1 2 2 2 1 1 3 6 4 4 4 5 3 1 0 1 6 7 7 7 7 9 8 8 7 7 7 7 5 4 4 3 2 2 2 1 1 2 1 1 2 3
1 5 0 1 1 1 0 2 4 4 3 4 6 5 7 5 4 3 4 6 6 6 6 7 7 7 7 6 6 5 4 5 4 4 3 3 3 2 2 2 3 2 3 3
1 4 2 2 4 6 1 0 2 3 5 5 2 8 6 8 5 7 7 6 7 8 8 8 8 8 8 7 7 7 6 5 5 4 3 3 3 3 2 3 4 3 3 3
2 5 3 4 0 1 1 3 5 6 4 2 4 9 3 6 6 4 4 2 4 3 9 7 8 8 8 8 7 7 6 5 5 4 3 3 4 3 3 3 4 3 4 4
1 0 3 7 5 3 3 4 2 4 3 6 6 7 1 5 6 5 7 7 7 8 10 8 5 7 8 8 8 7 7 7 5 4 3 3 4 3 4 4 4 4 4 5
1 1 4 7 4 4 3 4 5 5 3 4 8 3 3 5 5 5 6 7 7 7 8 7 8 7 6 6 7 7 7 7 6 5 4 4 5 5 5 5 4 4 4 5
4 3 1 4 5 3 7 6 8 9 8 8 4 7 4 3 5 5 5 6 8 8 9 8 8 9 7 4 5 6 5 6 5 5 3 6 6 5 5 5 5 6 5 5
3 3 2 5 3 7 7 8 9 12 11 11 9 15 6 4 6 6 7 7 6 7 7 8 9 11 9 8 2 3 4 6 5 5 5 5 5 5 5 5 6 6 7 6
4 3 2 5 2 3 8 10 11 7 6 9 10 7 6 5 6 5 6 6 6 6 6 8 8 7 8 9 8 4 2 1 3 4 5 5 5 6 6 6 6 7 7 6
3 3 3 4 3 3 6 0 2 8 3 7 7 6 7 5 6 7 6 6 6 6 6 7 7 8 8 7 7 6 6 6 5 5 6 6 6 6 6 6 6 7 5 6
3 3 1 2 4 7 4 1 2 5 1 4 8 6 5 3 7 6 4 5 5 5 5 4 5 5 7 8 7 6 7 6 6 7 6 6 6 5 5 6 7 7 5 6
3 4 3 0 3 6 2 1 1 1 3 4 7 6 5 2 4 4 2 3 4 4 2 4 5 3 5 6 6 7 7 7 7 8 8 6 5 5 6 7 8 6 6 8
3 1 6 4 4 8 2 1 2 2 4 3 6 6 5 2 2 2 2 3 3 2 4 5 5 4 6 6 6 7 7 7 8 7 6 6 7 7 7 7 6 8 9 8
7 7 5 3 4 9 0 1 4 3 3 4 3 3 1 4 2 2 3 4 4 4 4 5 4 5 6 6 6 7 7 9 8 9 8 8 8 8 7 7 9 9 8 9
2 6 4 8 5 1 3 1 3 4 4 1 0 2 3 1 2 4 3 4 4 5 5 5 5 7 7 7 6 8 10 8 11 9 10 10 10 10 9 7 10 8 9 7
5 3 2 3 3 3 3 3 3 3 3 3 4 5 3 2 3 4 5 6 5 6 6 5 6 7 8 8 8 8 10 10 10 12 11 8 7 10 9 8 8 8 8 8
4 3 3 5 3 2 4 5 6 3 4 5 4 3 3 3 6 5 6 7 8 7 6 6 7 7 10 9 10 9 11 8 10 11 10 10 9 10 11 10 10 9 10 9
5 13 9 9 4 2 3 5 7 7 7 4 4 4 5 4 7 6 8 9 8 9 7 7 8 8 11 10 11 11 9 7 9 11 10 10 9 10 9 9 10 16 19 21
Wind_Direction
205 74 159 242 230 266 209 230 127 144 203 157 229 263 255 238 212 221 225 168 140 139 126 106 101 105 107 109 115 138 118 46 55 27 16 22 2 334 1 3 2 6 355 355
39 111 273 284 255 279 352 166 78 81 171 134 0 276 262 208 217 196 205 154 142 128 112 105 108 96 86 122 119 93 82 66 58 69 57 148 253 298 313 344 349 345 359 1
127 216 307 321 32 48 22 101 157 143 160 32 349 301 292 34 92 106 84 138 141 147 146 142 133 127 119 105 110 98 87 80 64 48 37 14 22 15 13 359 352 347 11 12
78 313 338 43 73 3 77 331 50 65 83 194 109 270 304 191 140 151 150 130 156 151 142 153 152 143 143 131 114 107 94 90 72 60 67 81 112 58 315 329 334 357 8 17
277 23 20 57 342 316 155 56 74 55 91 66 308 78 268 108 215 221 214 180 162 160 154 157 154 152 160 139 140 128 108 92 85 83 94 93 79 65 323 7 16 358 357 16
104 85 59 77 356 33 149 70 32 40 72 42 289 124 285 235 264 172 167 172 151 150 144 142 147 146 147 160 151 146 133 111 93 94 98 117 117 92 52 11 12 350 348 349
35 17 8 24 27 340 65 62 359 359 10 214 283 50 242 277 353 88 169 165 158 152 155 158 163 171 174 177 180 157 144 135 129 135 135 137 120 108 119 77 13 5 344 333
136 330 3 341 71 170 103 144 153 198 192 257 21 236 262 176 193 65 162 171 162 164 165 174 185 188 192 188 186 172 162 173 167 164 170 145 123 136 167 67 52 334 297 291
131 327 210 50 341 79 221 42 173 108 7 58 238 276 310 180 333 84 120 150 177 180 187 195 200 199 192 183 188 181 181 190 190 198 186 169 160 151 256 316 322 297 300 298
158 95 236 245 359 327 199 200 58 356 160 254 298 275 234 232 210 204 151 189 206 215 213 211 206 193 197 192 188 184 192 199 209 207 199 202 211 212 242 262 259 268 291 314
67 106 278 62 204 186 106 266 69 111 143 170 263 265 220 198 203 187 211 214 214 221 222 210 204 200 193 187 183 193 201 209 210 206 211 212 240 255 280 290 278 277 288 303
34 121 159 226 111 39 259 230 156 126 222 217 144 273 268 161 173 117 78 31 355 346 259 218 204 197 192 190 190 195 200 211 217 207 208 233 241 260 276 279 287 303 310 314
291 190 52 342 352 355 231 226 171 112 76 215 137 263 121 86 72 56 68 45 33 27 24 18 325 247 205 195 189 193 194 200 190 191 216 259 265 260 257 271 284 299 300 298
79 82 161 191 201 134 211 226 190 130 130 193 227 225 162 142 131 70 60 59 51 38 22 7 357 327 246 215 197 191 194 184 179 187 221 255 265 260 251 261 273 282 286 293
115 197 88 266 249 233 218 208 190 191 202 179 228 204 178 152 123 104 89 64 51 36 25 9 356 352 359 278 229 193 186 179 178 186 230 259 268 267 273 283 289 287 285 282
13 308 36 297 256 204 249 238 218 228 242 250 271 277 146 136 115 91 82 74 55 34 19 9 10 10 3 358 292 277 194 198 184 195 231 262 278 278 276 279 278 282 282 284
155 139 90 271 318 352 290 243 206 196 198 201 224 220 156 117 110 98 77 62 49 37 24 14 6 3 2 2 352 349 275 279 217 233 256 265 270 270 271 270 277 274 271 267
158 138 128 264 19 222 249 20 296 196 253 213 92 108 115 122 101 87 72 74 46 30 18 8 1 353 354 348 358 360 5 355 342 312 292 280 264 267 264 266 271 278 275 274
117 131 222 208 220 286 254 205 190 176 150 5 132 116 86 69 114 49 48 74 71 35 12 1 351 347 347 355 354 353 348 340 330 320 308 289 273 275 286 283 277 273 270 273
72 96 137 262 221 247 279 224 67 114 254 34 108 108 84 21 166 167 74 92 63 35 2 340 338 338 341 322 336 336 323 326 316 310 306 306 294 283 284 276 273 262 248 257
131 176 204 232 267 284 326 180 330 134 232 90 97 103 86 88 204 241 116 61 53 35 359 354 352 327 308 317 329 316 307 296 274 271 275 280 270 260 254 258 260 268 269 267
170 153 206 176 220 271 348 50 199 156 93 128 94 86 179 238 295 11 3 4 4 354 337 327 324 313 302 303 306 292 287 282 282 276 272 265 258 260 266 258 271 274 271 269
234 193 187 194 224 80 355 74 85 106 117 124 117 296 200 197 295 318 317 313 294 301 311 314 307 301 297 292 285 287 289 285 289 281 280 274 271 266 259 255 264 272 267 262
332 22 232 343 150 151 117 103 137 164 139 140 165 208 229 240 274 278 288 290 283 281 275 260 282 284 282 274 274 255 277 282 287 288 286 280 266 272 266 264 258 253 260 269
208 6 265 264 184 145 217 209 187 220 182 186 195 204 243 252 269 255 264 270 263 260 262 259 260 264 269 273 269 270 274 277 282 287 288 286 281 280 280 274 265 258 258 255
197 248 245 263 243 166 162 211 185 194 202 197 212 258 264 244 258 261 261 259 255 261 254 266 263 260 273 277 276 277 272 264 273 282 285 278 278 278 277 276 276 265 266 272